Weather History for Mount Sterling, KY

Change the Weather History Date:

Thursday, February 7, 2013

  Actual Average Record
Temperature  
Mean Temperature 48 °F -  
Max Temperature 62 °F 38 °F 62 °F (2013)
Min Temperature 33 °F 21 °F 14 °F (2014)
Degree Days  
Heating Degree Days 18    
Moisture  
Dew Point 33 °F    
Average Humidity 62    
Maximum Humidity 87    
Minimum Humidity 36    
Precipitation  
Precipitation 0.00 in - - ()
Sea Level Pressure  
Sea Level Pressure 30.05 in    
Wind  
Wind Speed 6 mph (South)    
Max Wind Speed 13 mph    
Max Gust Speed 17 mph    
Visibility 10 miles    
Events      
Averages and records for this station are not official NWS values.
T = Trace of Precipitation, MM = Missing Value Source: NWS Daily Summary

Daily Weather History Graph

Daily Weather History Graph

Search for Another Location

Airport:

Trip Planner

Search our weather history database for the weather conditions in past years. The results will help you decide how hot, cold, wet, or windy it might be!

Date:

Astronomy

Feb. 07, 2013 Rise Set
Actual Time 7:34 AM EST 6:06 PM EST
Civil Twilight 7:07 AM EST 6:33 PM EST
Nautical Twilight 6:36 AM EST 7:04 PM EST
Astronomical Twilight 6:05 AM EST 7:35 PM EST
Moon 5:11 AM EST (2/7) 3:30 PM EST (2/7)
Length of Visible Light 11h 26m
Length of Day
10h 31m
Waning Crescent, 9% of the Moon is Illuminated
Feb 7
Waning Crescent
Feb 10
New
Feb 17
First Quarter
Feb 25
Full
Mar 4
Last Quarter

Hourly Weather History & Observations

Time (EST) Temp. Windchill Dew Point Humidity Pressure Visibility Wind Dir Wind Speed Gust Speed Precip Events Conditions
12:15 AM 33.8 °F 27.0 °F 30.2 °F 87% 30.20 in 10.0 mi East 8.1 mph - N/A   Clear
12:35 AM 33.8 °F 28.6 °F 30.2 °F 87% 30.19 in 10.0 mi East 5.8 mph - N/A   Clear
12:55 AM 33.8 °F 27.7 °F 30.2 °F 87% 30.19 in 10.0 mi ESE 6.9 mph - N/A   Clear
1:15 AM 33.8 °F 28.6 °F 30.2 °F 87% 30.18 in 10.0 mi ESE 5.8 mph - N/A   Clear
1:35 AM 33.8 °F 27.7 °F 30.2 °F 87% 30.17 in 10.0 mi ESE 6.9 mph - N/A   Clear
1:55 AM 33.8 °F 30.8 °F 30.2 °F 87% 30.17 in 10.0 mi ESE 3.5 mph - N/A   Clear
2:15 AM 33.8 °F 29.6 °F 30.2 °F 87% 30.17 in 10.0 mi East 4.6 mph - N/A   Clear
2:35 AM 33.8 °F 30.8 °F 30.2 °F 87% 30.17 in 10.0 mi SE 3.5 mph - N/A   Clear
2:55 AM 33.8 °F 28.6 °F 30.2 °F 87% 30.16 in 10.0 mi ESE 5.8 mph - N/A   Clear
3:15 AM 33.8 °F 30.8 °F 30.2 °F 87% 30.15 in 10.0 mi ESE 3.5 mph - N/A   Clear
3:35 AM 33.8 °F - 30.2 °F 87% 30.16 in 10.0 mi Calm Calm - N/A   Clear
3:55 AM 33.8 °F - 30.2 °F 87% 30.16 in 10.0 mi Calm Calm - N/A   Clear
4:15 AM 33.8 °F 29.6 °F 30.2 °F 87% 30.16 in 10.0 mi ESE 4.6 mph - N/A   Scattered Clouds
4:35 AM 33.8 °F 30.8 °F 30.2 °F 87% 30.16 in 10.0 mi ESE 3.5 mph - N/A   Scattered Clouds
4:55 AM 33.8 °F 29.6 °F 30.2 °F 87% 30.16 in 10.0 mi ESE 4.6 mph - N/A   Mostly Cloudy
5:15 AM 35.6 °F 31.7 °F 30.2 °F 81% 30.15 in 10.0 mi SE 4.6 mph - N/A   Mostly Cloudy
5:35 AM 35.6 °F 31.7 °F 30.2 °F 81% 30.15 in 10.0 mi ESE 4.6 mph - N/A   Mostly Cloudy
5:55 AM 35.6 °F 31.7 °F 30.2 °F 81% 30.15 in 10.0 mi SE 4.6 mph - N/A   Overcast
6:15 AM 35.6 °F 30.7 °F 30.2 °F 81% 30.14 in 10.0 mi SE 5.8 mph - N/A   Overcast
6:35 AM 35.6 °F 30.7 °F 30.2 °F 81% 30.14 in 10.0 mi SSE 5.8 mph - N/A   Overcast
6:55 AM 35.6 °F 30.7 °F 30.2 °F 81% 30.13 in 10.0 mi SSE 5.8 mph - N/A   Overcast
7:15 AM 35.6 °F 31.7 °F 30.2 °F 81% 30.13 in 10.0 mi SSE 4.6 mph - N/A   Overcast
7:35 AM 37.4 °F - 30.2 °F 75% 30.13 in 10.0 mi Calm Calm - N/A   Overcast
7:55 AM 35.6 °F - 32.0 °F 87% 30.13 in 10.0 mi Calm Calm - N/A   Overcast
8:15 AM 37.4 °F - 32.0 °F 81% 30.13 in 10.0 mi Calm Calm - N/A   Mostly Cloudy
8:35 AM 37.4 °F 33.8 °F 32.0 °F 81% 30.13 in 10.0 mi SE 4.6 mph - N/A   Scattered Clouds
8:55 AM 37.4 °F 34.9 °F 32.0 °F 81% 30.13 in 10.0 mi ESE 3.5 mph - N/A   Scattered Clouds
9:15 AM 39.2 °F 35.9 °F 32.0 °F 75% 30.12 in 10.0 mi ESE 4.6 mph - N/A   Mostly Cloudy
9:35 AM 41.0 °F 37.1 °F 32.0 °F 70% 30.12 in 10.0 mi SE 5.8 mph - N/A   Scattered Clouds
9:55 AM 42.8 °F 38.6 °F 32.0 °F 66% 30.12 in 10.0 mi SSE 6.9 mph - N/A   Clear
10:15 AM 44.6 °F 41.4 °F 32.0 °F 61% 30.12 in 10.0 mi SE 5.8 mph - N/A   Clear
10:35 AM 44.6 °F 42.2 °F 32.0 °F 61% 30.10 in 10.0 mi SE 4.6 mph - N/A   Clear
10:55 AM 46.4 °F 43.5 °F 32.0 °F 57% 30.10 in 10.0 mi SSE 5.8 mph - N/A   Clear
11:15 AM 50.0 °F - 33.8 °F 54% 30.09 in 10.0 mi South 6.9 mph - N/A   Clear
11:35 AM 51.8 °F - 33.8 °F 50% 30.09 in 10.0 mi South 5.8 mph - N/A   Clear
11:55 AM 55.4 °F - 32.0 °F 41% 30.08 in 10.0 mi South 8.1 mph - N/A   Clear
12:15 PM 57.2 °F - 32.0 °F 38% 30.07 in 10.0 mi SSW 10.4 mph - N/A   Clear
12:35 PM 57.2 °F - 32.0 °F 38% 30.05 in 10.0 mi SW 8.1 mph - N/A   Clear
12:55 PM 59.0 °F - 32.0 °F 36% 30.04 in 10.0 mi WSW 4.6 mph - N/A   Clear
1:15 PM 59.0 °F - 32.0 °F 36% 30.03 in 10.0 mi SW 9.2 mph - N/A   Clear
1:35 PM 59.0 °F - 33.8 °F 39% 30.02 in 10.0 mi SW 10.4 mph - N/A   Clear
1:55 PM 59.0 °F - 33.8 °F 39% 30.00 in 10.0 mi WSW 8.1 mph - N/A   Clear
2:15 PM 60.8 °F - 33.8 °F 36% 30.00 in 10.0 mi West 9.2 mph - N/A   Clear
2:35 PM 60.8 °F - 33.8 °F 36% 29.98 in 10.0 mi WSW 8.1 mph - N/A   Clear
2:55 PM 62.6 °F - 37.4 °F 39% 29.98 in 10.0 mi West 12.7 mph 17.3 mph N/A   Clear
3:15 PM 62.6 °F - 35.6 °F 37% 29.97 in 10.0 mi West 12.7 mph 17.3 mph N/A   Clear
3:35 PM 62.6 °F - 35.6 °F 37% 29.97 in 10.0 mi West 8.1 mph - N/A   Clear
3:55 PM 60.8 °F - 35.6 °F 39% 29.97 in 10.0 mi WSW 8.1 mph - N/A   Clear
4:15 PM 60.8 °F - 35.6 °F 39% 29.96 in 10.0 mi WSW 8.1 mph - N/A   Clear
4:35 PM 60.8 °F - 35.6 °F 39% 29.96 in 10.0 mi SW 4.6 mph - N/A   Clear
4:55 PM 60.8 °F - 35.6 °F 39% 29.96 in 10.0 mi WSW 4.6 mph - N/A   Clear
5:15 PM 60.8 °F - 35.6 °F 39% 29.95 in 10.0 mi SW 8.1 mph - N/A   Clear
5:35 PM 59.0 °F - 35.6 °F 42% 29.95 in 10.0 mi SW 6.9 mph - N/A   Clear
5:55 PM 57.2 °F - 35.6 °F 44% 29.95 in 10.0 mi SW 6.9 mph - N/A   Clear
6:35 PM 55.4 °F - 33.8 °F 44% 29.95 in 7.0 mi SW 4.6 mph - N/A   Overcast
6:55 PM 55.4 °F - 33.8 °F 44% 29.95 in 10.0 mi SW 4.6 mph - N/A   Overcast
7:15 PM 53.6 °F - 33.8 °F 47% 29.95 in 10.0 mi SW 4.6 mph - N/A   Overcast
7:35 PM 53.6 °F - 33.8 °F 47% 29.94 in 10.0 mi SW 5.8 mph - N/A   Overcast
7:55 PM 53.6 °F - 33.8 °F 47% 29.93 in 10.0 mi SW 5.8 mph - N/A   Mostly Cloudy
8:15 PM 51.8 °F - 33.8 °F 50% 29.93 in 10.0 mi SW 5.8 mph - N/A   Scattered Clouds
8:35 PM 50.0 °F - 33.8 °F 54% 29.93 in 10.0 mi SW 5.8 mph - N/A   Clear
8:55 PM 50.0 °F - 33.8 °F 54% 29.93 in 10.0 mi SW 5.8 mph - N/A   Clear
9:15 PM 48.2 °F - 33.8 °F 58% 29.93 in 10.0 mi SW 5.8 mph - N/A   Clear
9:35 PM 46.4 °F 42.9 °F 33.8 °F 62% 29.93 in 10.0 mi SSW 6.9 mph - N/A   Clear
9:55 PM 48.2 °F - 33.8 °F 58% 29.92 in 10.0 mi SSW 9.2 mph - N/A   Clear
10:15 PM 50.0 °F - 33.8 °F 54% 29.91 in 10.0 mi SSW 9.2 mph - N/A   Clear
10:35 PM 48.2 °F - 33.8 °F 58% 29.91 in 10.0 mi SW 6.9 mph - N/A   Clear
10:55 PM 46.4 °F 42.4 °F 33.8 °F 62% 29.91 in 10.0 mi SW 8.1 mph - N/A   Clear
11:15 PM 46.4 °F 42.9 °F 33.8 °F 62% 29.91 in 10.0 mi SW 6.9 mph - N/A   Clear
11:35 PM 46.4 °F 41.9 °F 33.8 °F 62% 29.90 in 10.0 mi SSW 9.2 mph - N/A   Clear
11:55 PM 46.4 °F 42.4 °F 33.8 °F 62% 29.89 in 10.0 mi SSW 8.1 mph - N/A   Clear